Quantico, VA

2:53 AM EST on December 09, 2019 (GMT -0500)
Quantico Marine Corps Air Facility

Weather History for KNYG - October, 2019

Change the Weather History Date:

Tuesday, October 22, 2019

  Actual Average Record
Temperature  
Mean Temperature 61 °F -  
Max Temperature 63 °F 62 °F 79 °F (2007)
Min Temperature 59 °F 44 °F 34 °F (2018)
Degree Days  
Heating Degree Days 4    
Growing Degree Days 11 (Base 50)    
Moisture  
Dew Point 57 °F    
Average Humidity 87    
Maximum Humidity 97    
Minimum Humidity 78    
Precipitation  
Precipitation 0.00 in - - ()
Sea Level Pressure  
Sea Level Pressure 29.95 in    
Wind  
Wind Speed 8 mph (South)    
Max Wind Speed 14 mph    
Max Gust Speed -    
Visibility 7 miles    
Events Rain    
Averages and records for this station are not official NWS values.
T = Trace of Precipitation, MM = Missing Value Source: NWS Daily Summary

Daily Weather History Graph

Daily Weather History Graph

Search for Another Location

Airport or City:

Astronomy

Oct. 22, 2019 Rise Set
Actual Time 7:25 AM EDT 6:21 PM EDT
Civil Twilight 6:58 AM EDT 6:48 PM EDT
Nautical Twilight 6:27 AM EDT 7:19 PM EDT
Astronomical Twilight 5:56 AM EDT 7:50 PM EDT
Moon 12:38 AM EDT (10/22) 3:23 PM EDT (10/22)
Length of Visible Light 11h 50m
Length of Day
10h 56m
Last Quarter, 37% of the Moon is Illuminated
Oct 22
Last Quarter
Oct 27
New
Nov 4
First Quarter
Nov 12
Full
Nov 19
Last Quarter

Hourly Weather History & Observations

Time (EDT) Temp. Dew Point Humidity Pressure Visibility Wind Dir Wind Speed Gust Speed Precip Events Conditions
12:14 AM 59.0 °F 55.0 °F 87% 30.09 in 10.0 mi South 6.9 mph - N/A   Mostly Cloudy
12:38 AM 59.0 °F 54.0 °F 83% 30.08 in 10.0 mi SSW 10.4 mph - N/A   Overcast
12:56 AM 60.1 °F 54.0 °F 80% 30.08 in 10.0 mi SSW 8.1 mph - N/A   Overcast
1:56 AM 59.0 °F 54.0 °F 83% 30.09 in 10.0 mi SW 3.5 mph - N/A   Overcast
2:48 AM 60.1 °F 55.0 °F 83% 30.08 in 10.0 mi SW 8.1 mph - N/A   Overcast
2:56 AM 60.1 °F 54.0 °F 80% 30.08 in 10.0 mi WSW 3.5 mph - N/A   Overcast
3:24 AM 59.0 °F 55.0 °F 87% 30.05 in 10.0 mi SSW 6.9 mph - N/A   Overcast
3:56 AM 60.1 °F 55.0 °F 83% 30.03 in 10.0 mi South 10.4 mph - N/A   Overcast
4:52 AM 60.8 °F 55.4 °F 82% 30.01 in 10.0 mi South 12.7 mph - N/A   Overcast
4:56 AM 60.1 °F 55.9 °F 86% 30.02 in 10.0 mi South 11.5 mph - N/A   Overcast
5:56 AM 60.1 °F 55.9 °F 86% 30.02 in 10.0 mi SSW 13.8 mph - N/A   Overcast
6:56 AM 60.1 °F 55.9 °F 86% 30.02 in 10.0 mi SSW 12.7 mph - N/A   Overcast
7:56 AM 59.0 °F 55.0 °F 87% 30.03 in 10.0 mi SW 9.2 mph - N/A   Overcast
8:21 AM 59.0 °F 55.0 °F 87% 30.02 in 6.0 mi SSW 10.4 mph - N/A   Overcast
8:56 AM 59.0 °F 55.9 °F 90% 30.01 in 6.0 mi South 10.4 mph - N/A   Overcast
9:05 AM 59.0 °F 55.9 °F 90% 30.00 in 6.0 mi South 11.5 mph - N/A   Overcast
9:44 AM 60.1 °F 55.9 °F 86% 29.99 in 6.0 mi North - - N/A   Mist
10:45 AM 63.0 °F 59.0 °F 87% 29.97 in 6.0 mi SSE 5.8 mph - N/A   Overcast
10:56 AM 63.0 °F 59.0 °F 87% 29.97 in 6.0 mi SSE 5.8 mph - N/A   Overcast
11:56 AM 63.0 °F 59.0 °F 87% 29.94 in 10.0 mi South 8.1 mph - N/A   Overcast
12:56 PM 61.0 °F 55.9 °F 83% 29.90 in 10.0 mi SSE 8.1 mph - N/A   Overcast
1:56 PM 62.1 °F 55.0 °F 78% 29.86 in 10.0 mi SSE 8.1 mph - N/A Rain Light Rain
2:40 PM 62.1 °F 59.0 °F 90% 29.81 in 1.0 mi South 5.8 mph - N/A Rain Rain
2:45 PM 62.1 °F 59.0 °F 90% 29.82 in 3.0 mi South 5.8 mph - N/A Rain Light Rain
2:56 PM 61.0 °F 59.0 °F 93% 29.82 in 3.0 mi South 5.8 mph - N/A Rain Light Rain
3:33 PM 61.0 °F 59.0 °F 93% 29.81 in 1.0 mi SSE 5.8 mph - N/A Rain Rain
3:56 PM 61.0 °F 59.0 °F 93% 29.81 in 2.0 mi Variable 5.8 mph - N/A Rain Rain
4:26 PM 61.0 °F 60.1 °F 97% 29.80 in 6.0 mi Variable 5.8 mph - N/A Rain Rain
4:42 PM 61.0 °F 60.1 °F 97% 29.84 in 2.0 mi Variable 5.8 mph - N/A Rain Rain
4:56 PM 61.0 °F 60.1 °F 97% 29.84 in 2.0 mi Variable 5.8 mph - N/A Rain Rain
6:56 PM - - N/A% 29.82 in - North - - N/A   Unknown
7:56 PM - - N/A% 29.86 in - North - - N/A   Unknown
8:56 PM - - N/A% 29.88 in - North - - N/A   Unknown
9:56 PM - - N/A% 29.89 in - North - - N/A   Unknown
10:56 PM - - N/A% 29.90 in - North - - N/A   Unknown
11:56 PM - - N/A% 29.89 in - North - - N/A   Unknown